N8ESG-13 Weather Reports


time (UTC)temp
C
wind
direction
speed
KPH
gust
KPH
rain 1hr
cm
rain 24hr
cm
rain mn
cm
humidity
%
barometer
mb
20260506103016 6 0.0 6.4 0.03 2.87 0.41 93 1006.0
20260506100016 6 90 1.6 11.3 0.08 2.87 0.41 93 1005.3
20260506093036 6 90 1.6 12.9 0.08 2.84 0.38 93 1006.3
20260506090016 6 0.0 1.6 0.08 2.79 0.33 93 1005.8
20260506083016 6 0.0 4.8 0.05 2.77 0.30 93 1005.8
20260506073016 6 0.0 3.2 0.03 2.72 0.25 93 1005.8
20260506043016 7 0.0 4.8 0.08 2.51 0.05 93 1006.9
20260506040016 7 0.0 6.4 0.15 2.46 2.46 93 1007.2
20260506033016 8 0.0 4.8 0.28 2.44 2.44 93 1007.4
20260506030036 8 0.0 1.6 0.33 2.31 2.31 93 1007.3
20260506023016 8 0.0 3.2 0.28 2.16 2.16 93 1006.8
20260506020016 8 0.0 1.6 0.15 1.98 1.98 92 1006.6
20260506013017 8 0.0 1.6 0.18 1.88 1.88 92 1006.4
20260506010037 8 0.0 1.6 0.15 1.83 1.83 92 1006.3
20260506003017 8 0.0 3.2 0.05 1.70 1.70 92 1005.9
20260506000016 8 0.0 1.6 0.25 1.68 1.68 92 1005.8
20260505233036 8 0.0 4.8 0.30 1.65 1.65 92 1006.4
20260505230016 8 135 1.6 6.4 0.28 1.42 1.42 92 1006.2
20260505223016 8 0.0 6.4 0.41 1.35 1.35 92 1006.1
20260505220017 8 180 1.6 8.0 0.64 1.14 1.14 92 1006.0
20260505213037 9 113 3.2 12.9 0.64 0.94 0.94 92 1006.2
20260505210016 11 0.0 6.4 0.33 0.51 0.51 92 1005.9
20260505203016 12 0.0 3.2 0.25 0.30 0.30 92 1006.1
20260505200016 12 90 1.6 8.0 0.18 0.18 0.18 91 1005.7
20260505193016 13 90 1.6 6.4 0.05 0.05 0.05 88 1006.0
20260505190016 14 113 3.2 12.9 0.00 0.00 0.00 84 1006.1
20260505183016 16 113 1.6 12.9 0.00 0.00 0.00 76 1006.2
20260505180016 16 90 3.2 14.5 0.00 0.00 0.00 76 1005.9
20260505173017 16 90 3.2 8.0 0.00 0.00 0.00 76 1005.9
20260505170016 16 90 4.8 16.1 0.00 0.00 0.00 75 1005.7
20260505163016 18 90 6.4 24.1 0.00 0.00 0.00 65 1005.7
20260505153016 20 45 3.2 20.9 0.00 0.00 0.00 63 1004.7
20260505123036 15 45 3.2 9.7 0.00 0.00 0.00 76 1004.2
20260505120016 16 45 3.2 14.5 0.00 0.00 0.00 74 1003.6
20260505113016 16 45 3.2 11.3 0.00 0.00 0.00 69 1003.5